Chickasha, OK

12:15 PM CDT on June 25, 2017 (GMT -0500)
Chickasha Municipal

Weather History for KCHK - November, 2012

Change the Weather History Date:

Saturday, November 10, 2012

  Actual Average Record
Temperature  
Mean Temperature 70 °F -  
Max Temperature 78 °F 64 °F 84 °F (1980)
Min Temperature 62 °F 37 °F 20 °F (1960)
Cooling Degree Days 5    
Growing Degree Days 20 (Base 50)    
Moisture  
Dew Point 59 °F    
Average Humidity 67    
Maximum Humidity 88    
Minimum Humidity 54    
Precipitation  
Precipitation 0.00 in - - ()
Sea Level Pressure  
Sea Level Pressure 29.80 in    
Wind  
Wind Speed 17 mph (South)    
Max Wind Speed 30 mph    
Max Gust Speed 37 mph    
Visibility 10 miles    
Events      
Averages and records for this station are not official NWS values.
T = Trace of Precipitation, MM = Missing Value Source: NWS Daily Summary

Daily Weather History Graph

Daily Weather History Graph

Search for Another Location

Airport or City:

Trip Planner

Search our weather history database for the weather conditions in past years. The results will help you decide how hot, cold, wet, or windy it might be!

Date:

Astronomy

Nov. 10, 2012 Rise Set
Actual Time 7:02 AM CST 5:29 PM CST
Civil Twilight 6:35 AM CST 5:55 PM CST
Nautical Twilight 6:05 AM CST 6:26 PM CST
Astronomical Twilight 5:35 AM CST 6:56 PM CST
Moon 3:16 AM CST (11/10) 3:10 PM CST (11/10)
Length of Visible Light 11h 20m
Length of Day
10h 26m
Waning Crescent, 14% of the Moon is Illuminated
Nov 10
Waning Crescent
Nov 13
New
Nov 20
First Quarter
Nov 28
Full
Dec 6
Last Quarter

Hourly Weather History & Observations

Time (CST) Temp. Dew Point Humidity Pressure Visibility Wind Dir Wind Speed Gust Speed Precip Events Conditions
12:15 AM 68.0 °F 55.4 °F 64% 29.86 in 10.0 mi South 13.8 mph - N/A   Clear
12:35 AM 68.0 °F 55.4 °F 64% 29.86 in 10.0 mi South 15.0 mph 21.9 mph N/A   Scattered Clouds
12:55 AM 68.0 °F 55.4 °F 64% 29.85 in 10.0 mi South 16.1 mph 24.2 mph N/A   Clear
1:15 AM 68.0 °F 55.4 °F 64% 29.86 in 10.0 mi South 18.4 mph 26.5 mph N/A   Clear
1:35 AM 68.0 °F 55.4 °F 64% 29.86 in 10.0 mi South 15.0 mph 21.9 mph N/A   Clear
1:55 AM 68.0 °F 57.2 °F 68% 29.86 in 10.0 mi South 18.4 mph 25.3 mph N/A   Clear
2:15 AM 68.0 °F 57.2 °F 68% 29.86 in 10.0 mi South 15.0 mph 20.7 mph N/A   Clear
2:35 AM 68.0 °F 57.2 °F 68% 29.88 in 10.0 mi SSW 10.4 mph 18.4 mph N/A   Clear
2:55 AM 68.0 °F 59.0 °F 73% 29.88 in 10.0 mi South 8.1 mph - N/A   Clear
3:15 AM 66.2 °F 55.4 °F 68% 29.88 in 10.0 mi SSE 4.6 mph - N/A   Clear
3:35 AM 66.2 °F 55.4 °F 68% 29.87 in 10.0 mi South 8.1 mph - N/A   Clear
3:55 AM 64.4 °F 55.4 °F 73% 29.87 in 10.0 mi South 8.1 mph - N/A   Clear
4:15 AM 64.4 °F 55.4 °F 73% 29.88 in 10.0 mi SSE 6.9 mph - N/A   Clear
4:35 AM 62.6 °F 55.4 °F 77% 29.88 in 10.0 mi SSE 10.4 mph 16.1 mph N/A   Clear
4:55 AM 62.6 °F 55.4 °F 77% 29.88 in 10.0 mi SSE 9.2 mph - N/A   Clear
5:15 AM 62.6 °F 55.4 °F 77% 29.88 in 10.0 mi SSE 9.2 mph - N/A   Clear
6:35 AM 62.6 °F 57.2 °F 82% 29.89 in 10.0 mi South 11.5 mph - N/A   Clear
6:55 AM 62.6 °F 59.0 °F 88% 29.89 in 10.0 mi South 12.7 mph 18.4 mph N/A   Mostly Cloudy
7:15 AM 62.6 °F 59.0 °F 88% 29.90 in 10.0 mi South 12.7 mph 18.4 mph N/A   Overcast
7:35 AM 62.6 °F 59.0 °F 88% 29.90 in 10.0 mi SSE 13.8 mph - N/A   Overcast
7:55 AM 62.6 °F 59.0 °F 88% 29.90 in 10.0 mi South 15.0 mph 24.2 mph N/A   Overcast
8:15 AM 62.6 °F 59.0 °F 88% 29.91 in 10.0 mi SSE 11.5 mph 20.7 mph N/A   Overcast
8:35 AM 64.4 °F 59.0 °F 83% 29.91 in 10.0 mi SSE 15.0 mph 20.7 mph N/A   Overcast
8:55 AM 66.2 °F 60.8 °F 83% 29.91 in 10.0 mi South 13.8 mph 21.9 mph N/A   Overcast
9:15 AM 66.2 °F 60.8 °F 83% 29.91 in 10.0 mi South 11.5 mph 18.4 mph N/A   Overcast
9:35 AM 66.2 °F 60.8 °F 83% 29.89 in 10.0 mi South 17.3 mph 25.3 mph N/A   Overcast
9:55 AM 68.0 °F 60.8 °F 78% 29.87 in 10.0 mi South 19.6 mph 26.5 mph N/A   Overcast
10:15 AM 68.0 °F 60.8 °F 78% 29.87 in 10.0 mi South 21.9 mph 34.5 mph N/A   Overcast
10:35 AM 69.8 °F 60.8 °F 73% 29.86 in 10.0 mi South 25.3 mph 36.8 mph N/A   Mostly Cloudy
10:55 AM 69.8 °F 60.8 °F 73% 29.85 in 10.0 mi South 21.9 mph 32.2 mph N/A   Overcast
11:15 AM 71.6 °F 60.8 °F 69% 29.84 in 10.0 mi South 25.3 mph 35.7 mph N/A   Overcast
11:35 AM 73.4 °F 60.8 °F 65% 29.83 in 10.0 mi South 26.5 mph 33.4 mph N/A   Mostly Cloudy
11:55 AM 73.4 °F 60.8 °F 65% 29.82 in 10.0 mi South 26.5 mph 36.8 mph N/A   Mostly Cloudy
12:15 PM 73.4 °F 59.0 °F 61% 29.80 in 10.0 mi South 20.7 mph 33.4 mph N/A   Scattered Clouds
12:35 PM 75.2 °F 60.8 °F 61% 29.79 in 10.0 mi South 20.7 mph 25.3 mph N/A   Scattered Clouds
12:55 PM 75.2 °F 60.8 °F 61% 29.78 in 10.0 mi South 18.4 mph 31.1 mph N/A   Mostly Cloudy
1:15 PM 77.0 °F 60.8 °F 57% 29.77 in 10.0 mi South 23.0 mph 33.4 mph N/A   Scattered Clouds
1:35 PM 77.0 °F 60.8 °F 57% 29.77 in 10.0 mi South 19.6 mph 29.9 mph N/A   Clear
1:55 PM 77.0 °F 59.0 °F 54% 29.75 in - South 23.0 mph 32.2 mph N/A   Scattered Clouds
2:15 PM 77.0 °F 59.0 °F 54% 29.74 in - South 20.7 mph 29.9 mph N/A   Scattered Clouds
2:35 PM 78.8 °F 60.8 °F 54% 29.73 in 10.0 mi South 21.9 mph 32.2 mph N/A   Scattered Clouds
2:55 PM 77.0 °F 59.0 °F 54% 29.73 in 10.0 mi South 29.9 mph 36.8 mph N/A   Scattered Clouds
3:15 PM 77.0 °F 59.0 °F 54% 29.72 in - South 26.5 mph 36.8 mph N/A   Scattered Clouds
3:35 PM 77.0 °F 59.0 °F 54% 29.72 in - South 24.2 mph 32.2 mph N/A   Clear
3:55 PM 75.2 °F 59.0 °F 57% 29.72 in - South 26.5 mph 33.4 mph N/A   Clear
4:15 PM 77.0 °F 59.0 °F 54% 29.72 in - South 23.0 mph 31.1 mph N/A   Clear
4:35 PM 75.2 °F 59.0 °F 57% 29.72 in - South 24.2 mph 33.4 mph N/A   Clear
4:55 PM 73.4 °F 57.2 °F 57% 29.72 in - South 29.9 mph 36.8 mph N/A   Clear
5:15 PM 73.4 °F 57.2 °F 57% 29.72 in - SSE 16.1 mph 26.5 mph N/A   Clear
5:35 PM 73.4 °F 59.0 °F 61% 29.72 in - SSE 18.4 mph 24.2 mph N/A   Clear
5:55 PM 73.4 °F 59.0 °F 61% 29.73 in - SSE 18.4 mph 24.2 mph N/A   Clear
6:15 PM 73.4 °F 59.0 °F 61% 29.73 in - SSE 19.6 mph 27.6 mph N/A   Clear
6:35 PM 73.4 °F 59.0 °F 61% 29.74 in - SSE 20.7 mph 28.8 mph N/A   Clear
6:55 PM 73.4 °F 59.0 °F 61% 29.74 in - South 20.7 mph 27.6 mph N/A   Clear
7:15 PM 73.4 °F 59.0 °F 61% 29.74 in - South 18.4 mph 27.6 mph N/A   Clear
7:35 PM 71.6 °F 57.2 °F 60% 29.74 in 10.0 mi SSE 19.6 mph - N/A   Clear
7:55 PM 71.6 °F 57.2 °F 60% 29.74 in - South 19.6 mph 27.6 mph N/A   Clear
8:15 PM 71.6 °F 59.0 °F 64% 29.73 in - SSE 20.7 mph 27.6 mph N/A   Clear
8:35 PM 71.6 °F 59.0 °F 64% 29.72 in - SSE 20.7 mph 31.1 mph N/A   Clear
8:55 PM 71.6 °F 57.2 °F 60% 29.72 in 10.0 mi South 21.9 mph 32.2 mph N/A   Clear
9:15 PM 71.6 °F 59.0 °F 64% 29.72 in - South 25.3 mph 34.5 mph N/A   Clear
9:35 PM 71.6 °F 59.0 °F 64% 29.72 in 10.0 mi South 21.9 mph 31.1 mph N/A   Clear
9:55 PM 71.6 °F 59.0 °F 64% 29.72 in 10.0 mi South 20.7 mph 31.1 mph N/A   Clear
10:35 PM 69.8 °F 59.0 °F 68% 29.71 in 10.0 mi South 20.7 mph 29.9 mph N/A   Scattered Clouds
10:55 PM 69.8 °F 59.0 °F 68% 29.70 in 10.0 mi South 21.9 mph 27.6 mph N/A   Scattered Clouds
11:15 PM 69.8 °F 59.0 °F 68% 29.70 in 10.0 mi South 19.6 mph 32.2 mph N/A   Clear
11:35 PM 69.8 °F 59.0 °F 68% 29.71 in 10.0 mi South 19.6 mph 31.1 mph N/A   Clear
11:55 PM 69.8 °F 59.0 °F 68% 29.71 in 10.0 mi South 20.7 mph 31.1 mph N/A   Clear